Allentown, PA

1:01 PM EDT on May 24, 2017 (GMT -0400)
Lehigh Valley International

Weather History for KABE - August, 2014

Change the Weather History Date:

Sunday, August 3, 2014

  Actual Average Record
Temperature  
Mean Temperature 71 °F 73 °F  
Max Temperature 76 °F 84 °F 97 °F (1930)
Min Temperature 66 °F 62 °F 48 °F (1927)
Degree Days  
Heating Degree Days 0 0  
Month to date heating degree days 0 0  
Since 1 June heating degree days 4 36  
Since 1 July heating degree days 0 3  
Cooling Degree Days 6 8  
Month to date cooling degree days 23 24  
Year to date cooling degree days 523 489  
Since 1 June cooling degree days 484 444  
Growing Degree Days 20 (Base 50)    
Moisture  
Dew Point 63 °F    
Average Humidity 76    
Maximum Humidity 87    
Minimum Humidity 64    
Precipitation  
Precipitation T in 0.14 in 1.77 in (1971)
Month to date precipitation 0.07 0.43  
Year to date precipitation 32.09 26.51  
Snow  
Snow 0.00 in 0.00 in 0.00 in (2002)
Month to date snowfall 0.0 0.0  
Since 1 June snowfall 0.0 0.0  
Since 1 July snowfall 0.0 0.0  
Snow Depth 0.00 in    
Sea Level Pressure  
Sea Level Pressure 30.09 in    
Wind  
Wind Speed 3 mph (SE)    
Max Wind Speed 8 mph    
Max Gust Speed 10 mph    
Visibility 9 miles    
Events      
T = Trace of Precipitation, MM = Missing Value Source: NWS Daily Summary

Daily Weather History Graph

Daily Weather History Graph

Search for Another Location

Airport or City:

Trip Planner

Search our weather history database for the weather conditions in past years. The results will help you decide how hot, cold, wet, or windy it might be!

Date:

Astronomy

Aug. 03, 2014 Rise Set
Actual Time 6:00 AM EDT 8:14 PM EDT
Civil Twilight 5:29 AM EDT 8:45 PM EDT
Nautical Twilight 4:52 AM EDT 9:22 PM EDT
Astronomical Twilight 4:11 AM EDT 10:03 PM EDT
Moon 1:21 PM EDT (8/3) No Moon Set
Length of Visible Light 15h 15m
Length of Day
14h 14m
Waxing Crescent, 46% of the Moon is Illuminated
Aug 3
Waxing Crescent
Aug 3
First Quarter
Aug 10
Full
Aug 17
Last Quarter
Aug 25
New

Hourly Weather History & Observations

Time (EDT) Temp. Dew Point Humidity Pressure Visibility Wind Dir Wind Speed Gust Speed Precip Events Conditions
12:17 AM 69.8 °F 62.6 °F 78% 30.12 in 10.0 mi ESE 3.5 mph - N/A   Mostly Cloudy
12:51 AM 70.0 °F 63.0 °F 78% 30.12 in 10.0 mi South 5.8 mph - N/A   Overcast
2:51 AM 69.8 °F 64.4 °F 83% 30.12 in 9.0 mi ESE 4.6 mph - N/A   Overcast
3:51 AM 69.8 °F 62.6 °F 78% 30.11 in 9.0 mi ESE 4.6 mph - N/A   Overcast
4:51 AM 66.9 °F 63.0 °F 87% 30.11 in 9.0 mi SSE 5.8 mph - N/A   Overcast
5:12 AM 68.0 °F 62.6 °F 83% 30.12 in 9.0 mi Calm Calm - N/A   Overcast
5:24 AM 68.0 °F 62.6 °F 83% 30.12 in 9.0 mi Calm Calm - N/A   Overcast
5:40 AM 68.0 °F 62.6 °F 83% 30.11 in 9.0 mi Calm Calm - N/A   Overcast
5:51 AM 66.9 °F 62.1 °F 84% 30.10 in 9.0 mi Calm Calm - N/A   Mostly Cloudy
6:24 AM 66.2 °F 62.6 °F 88% 30.12 in 8.0 mi East 3.5 mph - N/A   Overcast
6:51 AM 66.9 °F 63.0 °F 87% 30.11 in 6.0 mi Calm Calm - N/A   Overcast
7:51 AM 66.9 °F 62.1 °F 84% 30.11 in 6.0 mi East 5.8 mph - N/A   Haze
8:51 AM 69.1 °F 63.0 °F 81% 30.11 in 7.0 mi ESE 3.5 mph - N/A   Overcast
9:25 AM 69.8 °F 62.6 °F 78% 30.11 in 7.0 mi East 3.5 mph - N/A   Overcast
9:51 AM 70.0 °F 63.0 °F 78% 30.11 in 7.0 mi ENE 3.5 mph - N/A   Overcast
10:51 AM 71.6 °F 62.6 °F 73% 30.12 in 8.0 mi East 4.6 mph - N/A   Overcast
11:51 AM 73.0 °F 63.0 °F 71% 30.11 in 10.0 mi ESE 4.6 mph - N/A   Overcast
12:51 PM 73.9 °F 63.0 °F 68% 30.09 in 10.0 mi ESE 3.5 mph - N/A   Overcast
1:51 PM 73.0 °F 62.1 °F 68% 30.09 in 10.0 mi Calm Calm - N/A   Overcast
2:48 PM 73.4 °F 62.6 °F 69% 30.09 in 9.0 mi South 6.9 mph - N/A   Overcast
2:51 PM 73.9 °F 63.0 °F 68% 30.09 in 9.0 mi South 3.5 mph - N/A   Overcast
3:51 PM 73.4 °F 62.6 °F 69% 30.07 in 10.0 mi Calm Calm - N/A   Overcast
4:51 PM 75.0 °F 63.0 °F 66% 30.05 in 10.0 mi Calm Calm - 0.00 in   Overcast
5:51 PM 73.9 °F 63.0 °F 68% 30.04 in 10.0 mi WSW 3.5 mph - N/A   Overcast
6:51 PM 75.0 °F 63.0 °F 66% 30.03 in 10.0 mi Calm Calm - N/A   Overcast
7:34 PM 73.4 °F 64.4 °F 73% 30.05 in 10.0 mi South 3.5 mph - N/A   Overcast
7:51 PM 73.9 °F 64.0 °F 71% 30.05 in 10.0 mi South 3.5 mph - N/A   Overcast
8:11 PM 73.4 °F 64.4 °F 73% 30.05 in 10.0 mi South 4.6 mph - N/A   Overcast
8:51 PM 73.0 °F 64.0 °F 73% 30.06 in 10.0 mi SSW 4.6 mph - N/A   Overcast
9:51 PM 73.0 °F 64.0 °F 73% 30.07 in 10.0 mi Calm Calm - N/A   Overcast
10:51 PM 69.8 °F 64.4 °F 83% 30.08 in 10.0 mi SW 5.8 mph - N/A   Mostly Cloudy
11:47 PM 71.6 °F 64.4 °F 78% 30.06 in 10.0 mi Calm Calm - N/A   Overcast